Regional Weather Roundup
Issued by NWS Wakefield, VA

Home | Current Version | Previous Version | Graphics & Text | Print | Product List | Glossary On
Versions: 1 2 3 4 5 6 7 8 9 10 11 12 13 14 15 16 17 18 19 20 21 22 23 24 25 26 27 28 29 30 31 32 33 34 35 36 37 38 39 40 41 42 43 44 45 46 47 48 49 50
000
ASUS41 KAKQ 031715
RWRAKQ

REGIONAL WEATHER ROUNDUP
NATIONAL WEATHER SERVICE WAKEFIELD VA
100 PM EDT FRI JUL 03 2015

Note: "fair" indicates few or no clouds below 12,000 feet with no
significant weather and/or obstructions to visibility. * = Denotes
station may not report precipitation (e.g., rain,snow,etc.),
thunder or fog.

VAZ042-051-052>054-056-031800-
NORTHERN VIRGINIA

CITY           SKY/WX    TMP DP  RH WIND       PRES   REMARKS
WASH NATIONAL  PTSUNNY   81  64  56 S7        30.00S
DULLES         PTSUNNY   77  62  59 SE9       29.99F
FORT BELVOIR   PTSUNNY   76  64  64 S6        30.00S
QUANTICO       PTSUNNY   77  64  64 SW6       30.00F
FREDERICKSBRG* CLOUDY    82  64  55 SE5       29.98F
STAFFORD*      CLOUDY    77  64  64 SE6       30.03F
WARRENTON      PTSUNNY   78  67  67 SE3       29.99F
CULPEPER*      CLOUDY    76  64  64 SE5       30.00F
MANASSAS*      MOSUNNY   79  63  57 S7          N/A
LEESBURG*      MOSUNNY   81  64  57 S10       30.00F
WINCHESTER     PTSUNNY   79  64  61 SE7       29.99F
FRONT ROYAL*   FAIR      77  64  65 SE7       29.98F
LURAY*         PTSUNNY   79  63  57 CALM      29.99S
$$

VAZ048-049-060>072-079>083-031800-
CENTRAL AND SOUTH CENTRAL VIRGINIA

CITY           SKY/WX    TMP DP  RH WIND       PRES   REMARKS
RICHMOND       PTSUNNY   81  66  60 CALM      29.98F
CHESTERFIELD*  NOT AVBL
PETERSBURG*    PTSUNNY   80  70  70 E3        29.98F
HANOVER        PTSUNNY   78  64  61 VRB3      30.00F
TAPPAHANNOCK*  PTSUNNY   81  60  48 E6        30.00S
QUINTON*       PTSUNNY   79  66  64 E7        29.98F
CHARLOTTSVILLE CLOUDY    75  65  70 CALM      30.00F
GORDONSVILLE*  CLOUDY    73  68  83 W3        29.99S
ORANGE*        CLOUDY    79  64  61 NE5       30.01S
LOUISA*        CLOUDY    79  63  57 SE5       29.99S
BUMPASS*       PTSUNNY   78  64  63 SE3       29.99S
FARMVILLE*     CLOUDY    77  65  65 S6        29.98S
CREWE*         PTSUNNY   79  66  63 SE6       29.98F
FORT PICKETT*  PTSUNNY   78  65  65 S9        29.98F
CHASE CITY*    CLOUDY    81  68  65 SE7       29.98F
CLARKSVILLE*   CLOUDY    79  68  69 SE7       29.97F
SOUTH HILL*    PTSUNNY   77  66  68 CALM      30.04S
LAWRENCEVILLE* NOT AVBL
EMPORIA*         N/A     81  68  65 E6        29.98F
$$

VAZ088>098-031800-
SOUTHEAST VIRGINIA

CITY           SKY/WX    TMP DP  RH WIND       PRES   REMARKS
NORFOLK        SUNNY     79  65  62 NE10      29.98S
VIRGINIA BEACH SUNNY     81  66  60 E7        29.98S
NORFOLK NAVAL  MOSUNNY   81  63  54 NE9       29.99F
WEST POINT*    PTSUNNY   83  63  50 E5        29.99F
SALUDA*        FAIR      77  67  70 MISG      29.99F
NEWPORT NEWS   SUNNY     80  66  62 E8        29.98F
LANGLEY AFB    MOSUNNY   80  62  55 E7        29.97S
FORT EUSTIS    MOSUNNY   81  66  61 SE6       29.97S
WILLIAMSBURG*  MOSUNNY   84  68  58 CALM      29.99F
HR EXEC AP*    FAIR      84  64  51 E8        29.99F
FRANKLIN*      PTSUNNY   80  67  64 SE3       29.98F
WAKEFIELD      PTSUNNY   82  66  58 E3        29.98F
$$

VAZ020-022-025-037-045-031800-
WEST CENTRAL AND SOUTHWEST VIRGINIA

CITY           SKY/WX    TMP DP  RH WIND       PRES   REMARKS
STAUNTON*      RAIN      74  64  71 S6        30.03S
WAYNESBORO*    CLOUDY    67  62  85 SE3       30.03R
HOT SPRINGS VA HVY RAIN  61  61 100 SE5       30.07S VSB<1/4
LYNCHBURG      CLOUDY    72  65  78 E5        30.01F
DANVILLE       PTSUNNY   79  68  69 VRB6      29.96F
SOUTH BOSTON*  CLOUDY    77  67  70 MISG      29.97F
MARTINSVILLE   CLOUDY    75  74  96 E5        29.99F
ROANOKE        CLOUDY    68  63  84 E7        30.02S
BLACKSBURG     DRIZZLE   67  67 100 E7        30.05S
DUBLIN*        CLOUDY    70  70  99 CALM      30.02F FOG
MARION*        CLOUDY    71  65  81 SE6       30.03S
HILLSVILLE*      N/A    N/A N/A N/A SE3       30.03S
RICHLANDS*     LGT RAIN  71  65  82 SW5       30.00S
WISE*          RAIN      68  68 100 SW6       30.01S
ABINGDON*      CLOUDY    77  70  78 W3        29.97F
$$

MDZ021>025-VAZ099-100-031800-
SOUTHERN MARYLAND AND THE DELMARVA PENINSULA

CITY           SKY/WX    TMP DP  RH WIND       PRES   REMARKS
PATUXENT RIVER MOSUNNY   78  64  61 SE9       29.99S
BAY BRIDGE APT   N/A     77  64  65 S6        30.00S
LEONARDTOWN    PTSUNNY   77  59  53 SE8       30.01S
DOVER          MOSUNNY   79  66  64 E8        29.99R
GEORGETOWN     CLOUDY    77  63  61 SE9       30.01R
EASTON         MOSUNNY   81  64  57 SW5       30.03S
CAMBRIDGE      PTSUNNY   79  59  50 SE6       29.99S
SALISBURY      MOSUNNY   79  63  57 S7        30.00S
OCEAN CITY     MOSUNNY   76  62  62 VRB3      30.01S
WALLOPS ISLAND MOSUNNY   78  62  57 NE9       30.01S
ACCOMACK*      MOSUNNY   79  63  57 SE7       30.00S
$$

NCZ012>017-030>032-031800-
NORTH CENTRAL AND EASTERN NORTH CAROLINA

CITY           SKY/WX    TMP DP  RH WIND       PRES   REMARKS
ROANOKE RAPIDS PTSUNNY   79  70  73 SE3       29.97F
RALEIGH        PTSUNNY   78  71  79 SW8       29.97F
ELIZABETH CITY PTSUNNY   79  69  71 E6        29.98F
AHOSKIE*       MOSUNNY   80  70  70 S5        29.97F
EDENTON*         N/A     81  70  70 SE8       29.98S
CURRITUCK*     MOSUNNY   80  64  58 NE8       29.99F
KILL DEVIL HLS MOSUNNY   82  71  68 NE5       29.98F
MANTEO         CLOUDY    77  71  80 E7        29.99S
CAPE HATTERAS  MOSUNNY   80  70  71 SW10      30.00S
TARBORO*         N/A     83  70  64 CALM      29.97F
GOLDSBORO      CLOUDY    79  71  75 VRB7      29.96F
WASHINGTON     SUNNY     81  71  69 CALM      29.97F
GREENVILLE     PTSUNNY   82  72  69 S8        29.98F
NEW BERN       PTSUNNY   84  71  65 SW10      29.99S
WILMINGTON     CLOUDY    81  72  74 W7        29.99F
$$

VAZ048-031800-
ELSEWHERE

CITY           SKY/WX    TMP DP  RH WIND       PRES   REMARKS
HARRISBURG PA  PTSUNNY   79  61  53 CALM      29.98F
BALTIMORE      CLOUDY    78  64  61 S7        29.99S
ANNAPOLIS      PTSUNNY   77  63  61 SE8       29.99S
ANDREWS AFB    PTSUNNY   78  71  79 SE6       29.99F
PHILADELPHIA   PTSUNNY   82  60  47 SE3       30.00S
HENDERSON NC   CLOUDY    78  67  69 E6        29.98S
GREENSBORO     LGT RAIN  72  70  93 S8        29.96F FOG
ROCKY MOUNT    MOSUNNY   83  70  64 SE6       29.96F
$$

VAZ100-031800-
MARINE

STATION/POSITION TIME  TEMP    WIND        PRES    WAVE   SWELL
                       AIR SEA DIR/SP/G            HT/PER HT/PER
                 (UTC) (F)     (DEG/KT/KT) (MB)    (FT/S) (FT/S)
BRANDYWINE LGT   1600   73 73  180/  2/  3 1016.1R
CAPE MAY NJ      1600   75 75  250/  4/  5 1015.6R
LEWES DE         1600   75 72   90/  7/  8 1015.7R
15NM E FENWICK I 1650   73 74              1015.9R   3/ 8
OCEAN-CITY-INLET 1600   74 71  110/  3/  5 1015.8R
WACHAPREAGUE VA  1600   75 79  130/  1/  5 1016.0R
GOOSES REEF MD   1700   76 79  190/  6/  8 1016.8S
COVE POINT MD    1600   74     190/  6/  8 1016.5R
SOLOMONS ISLAND  1600      80                N/A
BISHOPS HEAD MD  1600   76     180/  9/ 11 1015.6R
PINEY POINT MD   1600          150/  9/ 10   N/A
CAMBRIDGE MD     1600   76 79   30/  2/  4 1015.5S
LEWISETTA VA     1600   75 80  110/  8/  9 1015.5R
RAPPAHANNOCK LGT 1600           CALM  /  1 1016.3R
STINGRAY PT      1700   76 81  130/  2/  4 1015.7F   1
YORK RVR RNG VA  1600   76     100/  5/  6 1015.1R
YORKTOWN VA      1600   76 79   80/  7/  8 1015.3S
JAMESTOWN VA     1700   78 83  130/  4/  8   N/A
DOMINION TERM VA 1600   76      80/  8/ 11 1015.4S
KIPTOPEKE VA     1600      82   90/  7/  9   N/A
CHES BAY BRIDGE  1600   73 72   50/  6/  6 1015.2R
CAPE HENRY VA    1600   75      80/  6/  7 1014.1R
CHESAPEAKE LGHT  1600   74      80/  4/  5 1016.6R
WILLOUBY STN VA  1600   74      90/  7/  8 1016.3F
CAPE HENRY BUOY  1628      78                N/A     3/ 8
1ST LANDING BUOY 1700      78              1015.2F   1/ 4
CAPE CHARLES BUO 1626      79                N/A     3/ 8   2/ 8
OFFSHORE WE BUOY 1611      78                N/A     3/ 7   3/ 7
64NM E OF VA BCH 1650   75 77   50/  4/  6 1015.3R   5/ 6   5/ 6
DUCK PIER NC     1600   75 73   10/  4/  5 1014.8R
44100 DUCK FRF   1624      78                N/A     3/ 7
44056 DUCK FRF   1611      76                N/A     3/ 4
OREGON INLET NC  1600   76 78   30/  5/  7 1015.4R
HATTERAS NC      1600   79 78  230/  6/ 10 1015.4S
DIAMOND SHLS NC  1650   77 82  260/ 14/ 16 1015.7S   5/ 8   3/ 8
CAPE LOOKOUT NC  1700   79     210/ 11/ 14 1015.1F
$$



USA.gov is the U.S. government's official web portal to all federal, state and local government web resources and services.